User: anonymous   Login
Location: Unspecified
(0.0000°N, 0.0000°E)
Time: 00:51:27
(UTC+00:00)
Language:

WISE - Orbit

View from above orbital plane
View from above orbital plane
View from above satellite
View from above satellite

Ground track
Ground track

The orbit data is extracted from the following two-line orbital elements,

1 36119U 09071A   17324.56902022 +.00001356 +00000-0 +51318-4 0  9997
2 36119 097.4369 352.3222 0004239 109.2230 250.9469 15.28693004440140
Epoch (UTC): 20 November 2017 13:39:23
Eccentricity: 0.0004239
inclination: 97.4369°
perigee height: 477 km
apogee height: 482 km
right ascension of ascending node: 352.3222°
argument of perigee: 109.2230°
revolutions per day: 15.28693004
mean anomaly at epoch: 250.9469°
orbit number at epoch: 44014

The dashed part of the orbit path shows where the satellite is in the earth's shadow,  

DLR